weather.gov     
National Weather Service

Regional Weather Roundup
NWS Homepage
This page is being discontinued on March 12, 2014.
The same data is available at this site. Please update your bookmarks.
Thank you, and we apologize for the inconvenience.
Please send an email to SR-SRH.Webmaster@noaa.gov with any concerns.


Current Version
Previous Version:    01  02  03  04  05  06  07  08  09  10  11  12  13  14  15  16  17  18  19  20  21  22  23  24  25  26  27  28  29  30  
   31  32  33  34  35  36  37  38  39  40  41  42  43  44  45  46  47  48  49  50  51  52  53  54  55  56  57  58  59  60  
[Printable]
058
ASUS43 KEAX 300211
RWREAX

WEATHER ROUNDUP FOR EASTERN KANSAS AND NORTHWEST MISSOURI
NATIONAL WEATHER SERVICE KANSAS CITY/PLEASANT HILL MO
900 PM CDT FRI AUG 29 2014

KSZ040-057-103>105-MOZ028-029-037-043-300300-
...KANSAS CITY METROPOLITAN AREA...

CITY           SKY/WX    TMP DP  RH WIND       PRES   REMARKS
K.C. INTL      MOCLDY    69  67  93 S8        29.83R
K.C. DOWNTOWN  TSTM      73  66  78 NW7       29.83R
LEES SUMMIT    MOCLDY    76  66  71 VRB6      29.85R
OLATHE - IXD   CLOUDY    77  64  64 CALM      29.83R
OLATHE - OJC   MOCLDY    78  64  61 W8        29.84R
LAWRENCE       MOCLDY    73  68  84 NE3       29.81R

$$

MOZ001>008-011>017-020>025-030>033-038>040-044>046-053-054-300300-
...NORTHERN AND CENTRAL MISSOURI...

CITY           SKY/WX    TMP DP  RH WIND       PRES   REMARKS
ST. JOSEPH     MOCLDY    76  68  76 S13       29.80R
MOSBY          CLOUDY    70  68  94 S7        29.84R
WHITEMAN AFB   CLEAR     74  69  85 S6        29.84R
CLINTON        CLEAR     77  68  73 CALM      29.85R
SEDALIA        CLEAR     75  68  78 S5        29.86R
WARSAW         NOT AVBL
MARSHALL       CLEAR     75  70  83 SE5       29.86R
CHILLICOTHE      N/A     74  69  85 S5        29.83R
MOBERLY        MOCLDY    75  68  78 S5        29.87R
KIRKSVILLE     PTCLDY    71  68  90 S5        29.84R

$$

MOZ041-047>049-056>058-063>065-088>090-097-300300-
...EASTERN AND SOUTHERN MISSOURI...

CITY           SKY/WX    TMP DP  RH WIND       PRES   REMARKS
ST. LOUIS INTL MOCLDY    84  66  54 S9G20     29.90R
SPIRIT OF STL  CLOUDY    78  69  73 SW3       29.88R
COLUMBIA       CLOUDY    75  73  93 SE7       29.88R
JEFFERSON CITY CLOUDY    76  70  82 S3        29.87R
MEXICO         CLOUDY   N/A N/A N/A S8        29.88R
HANNIBAL       CLOUDY    73  70  88 S5        29.87R
ROLLA          CLOUDY    74  67  78 S8        29.91R
LEBANON        MOCLDY    72  68  88 S8        29.94R
OSAGE BEACH    CLOUDY    73  70  88 S8        29.89R
SPRINGFIELD    CLEAR     76  67  73 S13       29.92R
BRANSON        CLOUDY    75  66  73 S6        29.96R
NEVADA         CLEAR     75  64  69 S6        29.88R
JOPLIN         PTCLDY    79  63  57 S9        29.89R
WEST PLAINS    CLOUDY    75  68  78 S5        29.98R

$$

IAZ060-094-KSZ022-034>040-054-083-096-NEZ052-066-093-300300-
...KANSAS...SOUTHEAST NEBRASKA AND IOWA...

CITY           SKY/WX    TMP DP  RH WIND       PRES   REMARKS
TOPEKA         CLOUDY    73  71  93 CALM      29.81R
MANHATTAN      CLEAR     76  65  68 W5        29.82R
EMPORIA        CLEAR     77  64  64 S10       29.85R
CHANUTE        CLEAR     76  65  68 S6        29.86R
WICHITA        PTCLDY    73  68  84 S8        29.86R
OMAHA          MOCLDY    71  67  87 CALM      29.80R
LINCOLN        PTCLDY    70  66  87 CALM      29.83R
FALLS CITY     MOCLDY    75  71  87 NW5       29.79R
LAMONI         PTCLDY    71  68  90 S5        29.81R
DES MOINES     LGT RAIN  71  68  90 SW6       29.78R

$$





U.S. Dept. of Commerce
NOAA National Weather Service
1325 East West Highway
Silver Spring, MD 20910
E-mail: w-nws.webmaster@noaa.gov
Page last modified: May 16, 2007
NATIONAL WEATHER SERVICE: for Safety, for Work, for Fun - FOR LIFE